Regional Weather Roundup
Issued by NWS

Home | Current Version | Previous Version | Graphics & Text | Print | Product List | Glossary Off
Versions: 1 2 3 4 5 6 7 8 9 10 11 12 13 14 15 16 17 18 19 20 21 22 23 24 25 26 27 28 29 30 31 32 33 34 35 36 37 38 39 40 41 42 43 44 45 46 47 48 49 50

000
ASUS43 KMKX 271621
RWRWI

WISCONSIN REGIONAL WEATHER ROUNDUP
NATIONAL WEATHER SERVICE MILWAUKEE/SULLIVAN WI
1100 AM CDT SUN MAY 27 2018

NOTE: "FAIR" INDICATES FEW OR NO CLOUDS BELOW 12,000 FEET WITH NO
SIGNIFICANT WEATHER AND/OR OBSTRUCTIONS TO VISIBILITY.

WIZ001-002-006>008-014>016-023>028-271700-
NORTHWEST WISCONSIN

CITY           SKY/WX    TMP DP  RH WIND       PRES   REMARKS
SUPERIOR ARPT  FAIR      80  62  53 CALM      29.87S HX  81
ASHLAND        FAIR      80  62  54 CALM      29.88R HX  81
HAYWARD        FAIR      82  61  48 CALM      29.90R HX  83
SIREN          FAIR      83  57  41 W3        29.89S HX  82
CUMBERLAND     FAIR      82  52  34 W8        29.90R HX  81
RICE LAKE      FAIR      86  56  35 W6        29.90R HX  84
CHETEK         FAIR      85  64  50 W5        29.89R HX  86
LADYSMITH      FAIR      84  63  49 NW6       29.91R HX  85
EAU CLAIRE     FAIR      86  66  51 NW5       29.86R HX  88
MENOMONIE      FAIR      82  66  57 N3        29.88S HX  84
NEW RICHMOND   FAIR      84  59  42 CALM      29.90R HX  83
OSCEOLA        FAIR      85  59  41 NW6       29.91S HX  85
$$

WIZ003>005-009-010-017-018-271700-
NORTH CENTRAL WISCONSIN

CITY           SKY/WX    TMP DP  RH WIND       PRES   REMARKS
MANITOWISH WTR FAIR      82  58  43 W9G17     29.89S HX  82
ARBOR VITAE    FAIR      82  57  42 W5        29.89F HX  82
WOODRUFF       FAIR      82  57  42 W5        29.89F HX  82
RHINELANDER    FAIR      88  56  33 W10G16    29.90S HX  86
EAGLE RIVER    FAIR      83  52  33 W9G18     29.88F HX  81
LAND O LAKES   FAIR      82  54  36 NW8G17    29.91S HX  81
PHILLIPS       FAIR      84  58  40 W6        29.90R HX  83
TOMAHAWK       FAIR      85  53  33 W5        29.89S HX  83
MEDFORD        FAIR      85  54  35 W7        29.89R HX  83
MERRILL        FAIR      88  55  32 NW9       29.88S HX  86
$$

WIZ029-030-035-036-043>047-271700-
CENTRAL WISCONSIN

CITY           SKY/WX    TMP DP  RH WIND       PRES   REMARKS
WAUSAU         NOT AVBL
MOSINEE        PTSUNNY   86  57  37 W3        29.89R HX  85
MARSHFIELD     FAIR      86  63  45 W6        29.87S HX  87
STEVENS POINT  FAIR      86  63  45 W5        29.87S HX  87
WAUPACA        FAIR      92  62  36 CALM      29.86R HX  92
WAUTOMA        FAIR      90  64  42 VRB3      29.86R HX  91
WISC RAPIDS    FAIR      89  64  43 S8        29.87F HX  90
CAMP DOUGLAS   FAIR      88  70  54 CALM      29.86S HX  92
$$

WIZ011>013-019>022-031-037>040-048>050-271700-
NORTHEAST WISCONSIN

CITY           SKY/WX    TMP DP  RH WIND       PRES   REMARKS
ANTIGO         FAIR      85  56  36 NW9       29.90R HX  83
SHAWANO        FAIR      91  53  27 W5        29.85R HX  88
OCONTO         FAIR      83  64  52 CALM      29.84S HX  84
STURGEON BAY   FAIR      75  62  64 N10       29.87R
GREEN BAY      FAIR      87  65  47 VRB6      29.85R HX  89
MANITOWOC      NOT AVBL
APPLETON       MOSUNNY   84  61  45 W6        29.86R HX  84
CLINTONVILLE   FAIR      88  55  33 CALM      29.85R HX  86
OSHKOSH        FAIR      88  69  53 W9        29.85R HX  92
$$

WIZ032>034-041-042-053>061-271700-
SOUTHWEST WISCONSIN

CITY           SKY/WX    TMP DP  RH WIND       PRES   REMARKS
LA CROSSE      FAIR      86  71  60 CALM      29.84S HX  91
SPARTA         FAIR      87  68  54 S3        29.87S HX  90
VIROQUA        FAIR      87  68  54 CALM      29.88F HX  90
BOSCOBEL       FAIR      86  69  56 CALM      29.85S HX  90
PRAIRIE DU CHI FAIR      83  68  59 CALM      29.85S HX  87
PLATTEVILLE    FAIR      86  75  70 SW9       29.88R HX  94
$$

WIZ056-057-062-063-064-067-068-271700-
SOUTH CENTRAL WISCONSIN

CITY           SKY/WX    TMP DP  RH WIND       PRES   REMARKS
REEDSBURG      FAIR      88  69  53 SW6       29.86F HX  92
BARABOO/DELLS  FAIR      89  64  43 W6        29.87S HX  90
LONE ROCK      FAIR      89  71  55 CALM      29.85R HX  95
MINERAL POINT  FAIR      90  70  51 S7        29.89R HX  95
MADISON        FAIR      88  67  49 SW6       29.86R HX  91
MIDDLETON      FAIR      92  59  33 SW10      29.87S HX  91
WATERTOWN      FAIR      89  67  48 SW8       29.87R HX  91
MONROE         FAIR      88  63  42 SW9       29.89R HX  88
JANESVILLE     MOSUNNY   90  66  45 SW6       29.87S HX  92
$$

WIZ051-052-058>065-066-070>072-271700-
SOUTHEAST WISCONSIN

CITY           SKY/WX    TMP DP  RH WIND       PRES   REMARKS
MILWAUKEE      FAIR      90  63  40 SW13      29.86R HX  91
WAUKESHA       SUNNY     88  63  42 S7        29.88R HX  88
MILWAUKEE/TIMM SUNNY     90  55  31 W8        29.86S HX  88
RACINE         FAIR      90  62  39 W8        29.87S HX  90
BURLINGTON     FAIR      90  63  40 S6        29.87S HX  90
KENOSHA        FAIR      89  63  41 W7        29.87R HX  90
FOND DU LAC    FAIR      88  66  48 W6        29.86R HX  90
SHEBOYGAN      FAIR      90  64  42 W14       29.85R HX  91
WEST BEND      FAIR      88  61  40 W13       29.87R HX  88
JUNEAU         FAIR      86  67  52 SW10      29.89R HX  89
$$

LSZ147-162-271700-
LAKE SUPERIOR

STATION/POSITION TIME  TEMP    WIND        PRES    WAVE
                       AIR SEA DIR/SP/G            HT/PER
                 (UTC) (F)     (DEG/KT/KT) (MB)    (FT/S)
W MID LAKE BUOY  1550   39 37  100/  4/  4 1011.9F   0
DEVILS ISLAND    1600   55      CALM  /  2 1011.8R
SAXON HARBOR     1530   60      10/  2/  2 1011.2S
$$

LMZ867-665-643>646-271700-
LAKE MICHIGAN

STATION/POSITION TIME  TEMP    WIND        PRES    WAVE
                       AIR SEA DIR/SP/G            HT/PER
                 (UTC) (F)     (DEG/KT/KT) (MB)    (FT/S)
N MID LAKE BUOY  1600   41 38  260/  6/  6 1011.1
NORTHPORT PIER   1540   60     310/  5/  6 1010.8R
KEWAUNEE LAKESHO 1600   64      40/  1/  3 1010.8
SHEBOYGAN LAKESH 1600   79     200/  3/  4 1010.3R
PORT WASHINGTON  1530   65     180/  5/  7 1011.5S
ATWATER BUOY     1537   61 53  150/  6/  8 1011.3R   0
MILWAUKEE LAKESH 1600   77     160/  4/  4   N/A
S MID LAKE BUOY  1550   52 41  180/  8/  8 1011.8F   0
KENOSHA   LAKESH 1600   67                 1011.2
$$

TC  - TEMPERATURE IN CELSIUS
VSB - VISIBILITY IN STATUTE MILES
WCI - WIND CHILL INDEX
HX  - HEAT INDEX




USA.gov is the U.S. government's official web portal to all federal, state and local government web resources and services.